TimeEST,TemperatureF,Dew PointF,Humidity,Sea Level PressureIn,VisibilityMPH,Wind Direction,Wind SpeedMPH,Gust SpeedMPH,PrecipitationIn,Events,Conditions,WindDirDegrees,DateUTC
12:54 AM,43.0,34.0,71,30.12,10.0,Calm,Calm,-,N/A,,Mostly Cloudy,0,2011-11-13 05:54:00
1:54 AM,42.1,33.1,70,30.12,10.0,Calm,Calm,-,N/A,,Overcast,0,2011-11-13 06:54:00
2:54 AM,41.0,33.8,76,30.12,10.0,Calm,Calm,-,N/A,,Mostly Cloudy,0,2011-11-13 07:54:00
3:54 AM,39.0,33.1,79,30.12,10.0,Calm,Calm,-,N/A,,Mostly Cloudy,0,2011-11-13 08:54:00
4:54 AM,37.9,33.1,83,30.11,10.0,Calm,Calm,-,N/A,,Mostly Cloudy,0,2011-11-13 09:54:00
5:54 AM,36.0,32.0,86,30.12,10.0,Calm,Calm,-,N/A,,Scattered Clouds,0,2011-11-13 10:54:00
6:54 AM,34.0,32.0,92,30.13,10.0,Calm,Calm,-,N/A,,Scattered Clouds,0,2011-11-13 11:54:00
7:54 AM,36.0,33.1,89,30.14,10.0,Calm,Calm,-,N/A,,Scattered Clouds,0,2011-11-13 12:54:00
8:54 AM,46.9,36.0,66,30.13,10.0,SW,3.5,-,N/A,,Mostly Cloudy,230,2011-11-13 13:54:00
9:54 AM,51.1,35.1,54,30.12,10.0,SSW,8.1,-,N/A,,Mostly Cloudy,200,2011-11-13 14:54:00
10:54 AM,54.0,36.0,51,30.10,10.0,South,3.5,-,N/A,,Mostly Cloudy,190,2011-11-13 15:54:00
11:54 AM,60.1,33.1,36,30.05,10.0,SSW,11.5,16.1,N/A,,Mostly Cloudy,200,2011-11-13 16:54:00
12:54 PM,62.1,32.0,32,30.02,10.0,SSW,8.1,19.6,N/A,,Overcast,200,2011-11-13 17:54:00
1:54 PM,63.0,30.9,30,30.00,10.0,South,10.4,-,N/A,,Overcast,180,2011-11-13 18:54:00
2:54 PM,64.0,30.0,28,29.99,10.0,SSW,10.4,-,N/A,,Overcast,210,2011-11-13 19:54:00
3:54 PM,63.0,28.0,27,29.98,10.0,SSW,6.9,19.6,N/A,,Overcast,200,2011-11-13 20:54:00
4:54 PM,62.1,28.0,28,29.99,10.0,SSW,8.1,-,N/A,,Mostly Cloudy,210,2011-11-13 21:54:00
5:54 PM,62.1,27.0,26,29.98,10.0,SSW,6.9,-,N/A,,Overcast,200,2011-11-13 22:54:00
6:54 PM,62.1,27.0,26,29.99,10.0,SSW,12.7,19.6,N/A,,Mostly Cloudy,200,2011-11-13 23:54:00
7:54 PM,61.0,28.0,29,30.00,10.0,SSW,13.8,21.9,N/A,,Scattered Clouds,200,2011-11-14 00:54:00
8:54 PM,60.1,28.9,31,29.99,10.0,SW,12.7,23.0,N/A,,Partly Cloudy,220,2011-11-14 01:54:00
9:54 PM,59.0,33.1,38,29.98,10.0,SW,12.7,21.9,N/A,,Clear,220,2011-11-14 02:54:00
10:54 PM,59.0,37.0,44,29.97,10.0,SW,13.8,26.5,N/A,,Clear,220,2011-11-14 03:54:00
11:54 PM,57.9,39.9,51,29.99,10.0,SW,10.4,19.6,N/A,,Clear,220,2011-11-14 04:54:00